Time,TemperatureF,DewpointF,PressureIn,WindDirection,WindDirectionDegrees,WindSpeedMPH,WindSpeedGustMPH,Humidity,HourlyPrecipIn,Conditions,Clouds,dailyrainin,SoftwareType,DateUTC
2013-10-31 00:01:00,56.2,53.6,30.12,ESE,109,0.0,0.0,91,0.00,,,0.00,Wunderground v.1.15,2013-10-31 04:01:00,
2013-10-31 00:02:00,56.2,53.6,30.12,ESE,109,0.0,0.0,91,0.00,,,0.00,Wunderground v.1.15,2013-10-31 04:02:00,
2013-10-31 00:03:00,56.2,53.6,30.12,ESE,109,0.0,0.0,91,0.00,,,0.00,Wunderground v.1.15,2013-10-31 04:03:00,
2013-10-31 00:04:00,56.2,53.6,30.11,ESE,109,0.0,0.0,91,0.00,,,0.00,Wunderground v.1.15,2013-10-31 04:04:00,
2013-10-31 00:09:00,56.1,53.5,30.11,ESE,109,0.0,0.0,91,0.00,,,0.00,Wunderground v.1.15,2013-10-31 04:09:00,
2013-10-31 00:14:00,56.1,53.8,30.11,ESE,109,0.0,0.0,92,0.00,,,0.00,Wunderground v.1.15,2013-10-31 04:14:00,
2013-10-31 00:20:00,56.2,53.9,30.11,ESE,109,0.0,0.0,92,0.00,,,0.00,Wunderground v.1.15,2013-10-31 04:20:00,
2013-10-31 00:21:00,56.2,53.9,30.11,ESE,109,0.0,0.0,92,0.00,,,0.00,Wunderground v.1.15,2013-10-31 04:21:00,
2013-10-31 00:23:00,56.3,54.0,30.11,ESE,109,0.0,0.0,92,0.00,,,0.00,Wunderground v.1.15,2013-10-31 04:23:00,
2013-10-31 00:28:00,56.5,54.2,30.11,ESE,109,0.0,0.0,92,0.00,,,0.00,Wunderground v.1.15,2013-10-31 04:28:00,
2013-10-31 00:33:00,56.6,54.3,30.10,ESE,109,0.0,0.0,92,0.00,,,0.00,Wunderground v.1.15,2013-10-31 04:33:00,
2013-10-31 00:38:00,56.8,54.5,30.10,ESE,109,0.0,0.0,92,0.00,,,0.00,Wunderground v.1.15,2013-10-31 04:38:00,
2013-10-31 00:44:00,57.0,54.7,30.11,ESE,109,0.0,0.0,92,0.00,,,0.00,Wunderground v.1.15,2013-10-31 04:44:00,
2013-10-31 00:49:00,57.1,54.5,30.10,ESE,109,0.0,0.0,91,0.00,,,0.00,Wunderground v.1.15,2013-10-31 04:49:00,
2013-10-31 00:54:00,57.2,54.6,30.10,ESE,109,0.0,0.0,91,0.00,,,0.00,Wunderground v.1.15,2013-10-31 04:54:00,
2013-10-31 01:00:00,57.2,54.6,30.10,ESE,109,0.0,0.0,91,0.00,,,0.00,Wunderground v.1.15,2013-10-31 05:00:00,
2013-10-31 01:06:00,57.3,54.7,30.10,ESE,119,0.0,2.0,91,0.00,,,0.00,Wunderground v.1.15,2013-10-31 05:06:00,
2013-10-31 01:11:00,57.5,55.2,30.10,SE,134,0.0,0.0,92,0.00,,,0.00,Wunderground v.1.15,2013-10-31 05:11:00,
2013-10-31 01:16:00,57.5,54.9,30.10,SE,134,0.0,0.0,91,0.00,,,0.00,Wunderground v.1.15,2013-10-31 05:16:00,
2013-10-31 01:21:00,57.6,55.0,30.10,SE,134,0.0,0.0,91,0.00,,,0.00,Wunderground v.1.15,2013-10-31 05:21:00,
2013-10-31 01:27:00,57.7,55.1,30.10,SE,134,0.0,0.0,91,0.00,,,0.00,Wunderground v.1.15,2013-10-31 05:27:00,
2013-10-31 01:32:00,57.8,55.2,30.09,SSE,153,0.0,2.0,91,0.00,,,0.00,Wunderground v.1.15,2013-10-31 05:32:00,
2013-10-31 01:37:00,57.9,55.3,30.09,SE,132,1.0,2.0,91,0.00,,,0.00,Wunderground v.1.15,2013-10-31 05:37:00,
2013-10-31 01:43:00,58.0,55.4,30.09,SE,134,0.0,1.0,91,0.00,,,0.00,Wunderground v.1.15,2013-10-31 05:43:00,
2013-10-31 01:48:00,58.0,55.4,30.09,ESE,104,0.0,2.0,91,0.00,,,0.00,Wunderground v.1.15,2013-10-31 05:48:00,
2013-10-31 01:53:00,58.1,55.8,30.08,SSE,155,0.0,1.0,92,0.00,,,0.00,Wunderground v.1.15,2013-10-31 05:53:00,
2013-10-31 01:59:00,58.2,55.6,30.08,SSE,155,0.0,1.0,91,0.00,,,0.00,Wunderground v.1.15,2013-10-31 05:59:00,
2013-10-31 02:04:00,58.2,55.6,30.08,South,173,0.0,0.0,91,0.00,,,0.00,Wunderground v.1.15,2013-10-31 06:04:00,
2013-10-31 02:09:00,58.2,55.6,30.07,SSE,151,0.0,1.0,91,0.00,,,0.00,Wunderground v.1.15,2013-10-31 06:09:00,
2013-10-31 02:14:00,58.2,55.9,30.07,South,190,0.0,0.0,92,0.00,,,0.00,Wunderground v.1.15,2013-10-31 06:14:00,
2013-10-31 02:20:00,58.2,55.6,30.07,South,190,0.0,0.0,91,0.00,,,0.00,Wunderground v.1.15,2013-10-31 06:20:00,
2013-10-31 02:25:00,58.2,55.9,30.07,ESE,117,0.0,1.0,92,0.00,,,0.00,Wunderground v.1.15,2013-10-31 06:25:00,
2013-10-31 02:30:00,58.1,55.5,30.06,ESE,117,0.0,0.0,91,0.00,,,0.00,Wunderground v.1.15,2013-10-31 06:30:00,
2013-10-31 02:36:00,58.1,55.8,30.06,ESE,117,0.0,1.0,92,0.00,,,0.00,Wunderground v.1.15,2013-10-31 06:36:00,
2013-10-31 02:41:00,58.1,55.8,30.06,ESE,117,0.0,0.0,92,0.00,,,0.00,Wunderground v.1.15,2013-10-31 06:41:00,
2013-10-31 02:47:00,58.1,55.8,30.05,ESE,117,0.0,0.0,92,0.00,,,0.00,Wunderground v.1.15,2013-10-31 06:47:00,
2013-10-31 02:52:00,58.1,55.8,30.05,ESE,117,0.0,0.0,92,0.00,,,0.00,Wunderground v.1.15,2013-10-31 06:52:00,
2013-10-31 02:57:00,58.1,55.8,30.05,ESE,117,0.0,0.0,92,0.00,,,0.00,Wunderground v.1.15,2013-10-31 06:57:00,
2013-10-31 03:03:00,58.1,55.8,30.05,ESE,117,0.0,0.0,92,0.00,,,0.00,Wunderground v.1.15,2013-10-31 07:03:00,
2013-10-31 03:08:00,58.0,55.7,30.05,ESE,117,0.0,0.0,92,0.00,,,0.00,Wunderground v.1.15,2013-10-31 07:08:00,
2013-10-31 03:13:00,57.8,55.5,30.05,ESE,117,0.0,0.0,92,0.00,,,0.00,Wunderground v.1.15,2013-10-31 07:13:00,
2013-10-31 03:18:00,57.8,55.8,30.05,ESE,117,0.0,0.0,93,0.00,,,0.00,Wunderground v.1.15,2013-10-31 07:18:00,
2013-10-31 03:24:00,57.8,55.8,30.04,ESE,117,0.0,1.0,93,0.00,,,0.00,Wunderground v.1.15,2013-10-31 07:24:00,
2013-10-31 03:29:00,58.0,56.0,30.04,ESE,117,0.0,1.0,93,0.00,,,0.00,Wunderground v.1.15,2013-10-31 07:29:00,
2013-10-31 03:34:00,58.0,56.0,30.04,South,169,0.0,2.0,93,0.00,,,0.00,Wunderground v.1.15,2013-10-31 07:34:00,
2013-10-31 03:39:00,58.2,56.2,30.04,South,169,0.0,2.0,93,0.00,,,0.00,Wunderground v.1.15,2013-10-31 07:39:00,
2013-10-31 03:45:00,58.3,56.3,30.03,South,169,0.0,0.0,93,0.00,,,0.00,Wunderground v.1.15,2013-10-31 07:45:00,
2013-10-31 03:50:00,58.3,56.0,30.03,South,169,0.0,0.0,92,0.00,,,0.00,Wunderground v.1.15,2013-10-31 07:50:00,
2013-10-31 03:55:00,58.3,56.3,30.03,SSE,167,0.0,0.0,93,0.00,,,0.00,Wunderground v.1.15,2013-10-31 07:55:00,
2013-10-31 04:00:00,58.2,55.9,30.03,SSE,167,0.0,0.0,92,0.00,,,0.00,Wunderground v.1.15,2013-10-31 08:00:00,
2013-10-31 04:06:00,58.1,56.1,30.02,SSE,167,0.0,0.0,93,0.00,,,0.00,Wunderground v.1.15,2013-10-31 08:06:00,
2013-10-31 04:11:00,58.2,56.2,30.02,SSE,167,0.0,0.0,93,0.00,,,0.00,Wunderground v.1.15,2013-10-31 08:11:00,
2013-10-31 04:17:00,58.2,56.2,30.01,SSE,167,0.0,0.0,93,0.00,,,0.00,Wunderground v.1.15,2013-10-31 08:17:00,
2013-10-31 04:22:00,58.2,56.2,30.01,SSE,167,0.0,0.0,93,0.00,,,0.00,Wunderground v.1.15,2013-10-31 08:22:00,
2013-10-31 04:27:00,58.1,56.1,30.00,SSE,168,0.0,0.0,93,0.00,,,0.00,Wunderground v.1.15,2013-10-31 08:27:00,
2013-10-31 04:33:00,58.1,56.4,30.00,SSE,168,0.0,0.0,94,0.00,,,0.00,Wunderground v.1.15,2013-10-31 08:33:00,
2013-10-31 04:38:00,58.1,56.4,30.00,SSE,168,0.0,0.0,94,0.00,,,0.00,Wunderground v.1.15,2013-10-31 08:38:00,
2013-10-31 04:43:00,58.1,56.4,30.00,SSE,158,0.0,2.0,94,0.00,,,0.01,Wunderground v.1.15,2013-10-31 08:43:00,
2013-10-31 04:49:00,58.1,56.4,30.00,SSE,158,0.0,2.0,94,0.00,,,0.01,Wunderground v.1.15,2013-10-31 08:49:00,
2013-10-31 04:54:00,58.1,56.4,30.00,SSE,158,0.0,1.0,94,0.00,,,0.01,Wunderground v.1.15,2013-10-31 08:54:00,
2013-10-31 04:59:00,58.1,56.4,30.00,SSE,158,0.0,1.0,94,0.00,,,0.01,Wunderground v.1.15,2013-10-31 08:59:00,
2013-10-31 05:04:00,58.1,56.4,30.00,SSE,158,0.0,0.0,94,0.00,,,0.01,Wunderground v.1.15,2013-10-31 09:04:00,
2013-10-31 05:10:00,58.0,56.3,30.00,SSE,158,0.0,0.0,94,0.00,,,0.01,Wunderground v.1.15,2013-10-31 09:10:00,
2013-10-31 05:15:00,58.1,56.7,30.00,SSE,158,0.0,0.0,95,0.00,,,0.01,Wunderground v.1.15,2013-10-31 09:15:00,
2013-10-31 05:20:00,58.1,56.4,30.00,SSE,158,0.0,0.0,94,0.00,,,0.01,Wunderground v.1.15,2013-10-31 09:20:00,
2013-10-31 05:26:00,58.0,56.3,30.00,SSE,158,0.0,0.0,94,0.00,,,0.01,Wunderground v.1.15,2013-10-31 09:26:00,
2013-10-31 05:31:00,58.0,56.6,29.99,NE,41,0.0,2.0,95,0.00,,,0.01,Wunderground v.1.15,2013-10-31 09:31:00,
2013-10-31 05:36:00,58.1,56.7,30.00,SE,131,0.0,2.0,95,0.00,,,0.01,Wunderground v.1.15,2013-10-31 09:36:00,
2013-10-31 05:41:00,58.2,56.8,30.00,SE,131,0.0,0.0,95,0.00,,,0.01,Wunderground v.1.15,2013-10-31 09:41:00,
2013-10-31 05:46:00,58.2,56.8,30.00,SE,131,0.0,0.0,95,0.00,,,0.01,Wunderground v.1.15,2013-10-31 09:46:00,
2013-10-31 05:52:00,58.2,56.8,30.00,SE,131,0.0,0.0,95,0.00,,,0.01,Wunderground v.1.15,2013-10-31 09:52:00,
2013-10-31 05:57:00,58.2,56.8,29.99,SE,131,0.0,0.0,95,0.00,,,0.01,Wunderground v.1.15,2013-10-31 09:57:00,
2013-10-31 06:03:00,58.2,56.8,29.99,ESE,115,0.0,2.0,95,0.00,,,0.01,Wunderground v.1.15,2013-10-31 10:03:00,
2013-10-31 06:08:00,58.1,56.4,29.99,ESE,115,0.0,2.0,94,0.00,,,0.01,Wunderground v.1.15,2013-10-31 10:08:00,
2013-10-31 06:13:00,58.0,56.3,29.99,ESE,115,0.0,0.0,94,0.00,,,0.01,Wunderground v.1.15,2013-10-31 10:13:00,
2013-10-31 06:18:00,58.0,56.6,29.99,SE,126,0.0,2.0,95,0.00,,,0.01,Wunderground v.1.15,2013-10-31 10:18:00,
2013-10-31 06:23:00,57.9,56.5,29.99,SE,126,0.0,0.0,95,0.00,,,0.01,Wunderground v.1.15,2013-10-31 10:23:00,
2013-10-31 06:29:00,57.9,56.5,29.98,SE,126,0.0,1.0,95,0.00,,,0.01,Wunderground v.1.15,2013-10-31 10:29:00,
2013-10-31 06:34:00,57.8,56.4,29.99,SE,126,0.0,0.0,95,0.00,,,0.01,Wunderground v.1.15,2013-10-31 10:34:00,
2013-10-31 06:39:00,58.1,56.7,29.99,NNE,28,0.0,1.0,95,0.00,,,0.01,Wunderground v.1.15,2013-10-31 10:39:00,
2013-10-31 06:44:00,58.1,56.7,29.99,NNE,28,0.0,0.0,95,0.00,,,0.01,Wunderground v.1.15,2013-10-31 10:44:00,
2013-10-31 06:49:00,58.3,56.9,29.99,NNE,28,0.0,1.0,95,0.00,,,0.01,Wunderground v.1.15,2013-10-31 10:49:00,
2013-10-31 06:55:00,58.4,57.0,29.99,NNE,28,0.0,0.0,95,0.00,,,0.01,Wunderground v.1.15,2013-10-31 10:55:00,
2013-10-31 07:00:00,58.6,57.5,29.98,SE,144,0.0,0.0,96,0.00,,,0.01,Wunderground v.1.15,2013-10-31 11:00:00,
2013-10-31 07:06:00,58.6,57.2,29.98,SSE,154,0.0,0.0,95,0.00,,,0.01,Wunderground v.1.15,2013-10-31 11:06:00,
2013-10-31 07:11:00,58.6,57.2,29.98,North,351,0.0,1.0,95,0.00,,,0.01,Wunderground v.1.15,2013-10-31 11:11:00,
2013-10-31 07:16:00,58.7,57.3,29.98,SW,234,0.0,1.0,95,0.00,,,0.01,Wunderground v.1.15,2013-10-31 11:16:00,
2013-10-31 07:22:00,58.7,57.3,29.98,SW,234,0.0,0.0,95,0.00,,,0.01,Wunderground v.1.15,2013-10-31 11:22:00,
2013-10-31 07:27:00,58.6,57.2,29.98,SW,234,0.0,0.0,95,0.00,,,0.01,Wunderground v.1.15,2013-10-31 11:27:00,
2013-10-31 07:32:00,58.7,57.3,29.97,NNE,30,0.0,0.0,95,0.00,,,0.01,Wunderground v.1.15,2013-10-31 11:32:00,
2013-10-31 07:37:00,58.6,57.2,29.98,NNE,30,0.0,0.0,95,0.00,,,0.01,Wunderground v.1.15,2013-10-31 11:37:00,
2013-10-31 07:43:00,58.7,57.3,29.97,ESE,121,0.0,1.0,95,0.00,,,0.01,Wunderground v.1.15,2013-10-31 11:43:00,
2013-10-31 07:48:00,58.6,57.2,29.98,SE,145,0.0,1.0,95,0.00,,,0.01,Wunderground v.1.15,2013-10-31 11:48:00,
2013-10-31 07:53:00,58.7,57.3,29.98,NNE,24,0.0,0.0,95,0.00,,,0.01,Wunderground v.1.15,2013-10-31 11:53:00,
2013-10-31 07:58:00,58.7,57.3,29.97,NNE,24,0.0,0.0,95,0.00,,,0.01,Wunderground v.1.15,2013-10-31 11:58:00,
2013-10-31 08:04:00,58.7,57.3,29.97,NNE,24,0.0,0.0,95,0.00,,,0.01,Wunderground v.1.15,2013-10-31 12:04:00,
2013-10-31 08:09:00,58.7,57.3,29.98,NNE,24,0.0,0.0,95,0.00,,,0.01,Wunderground v.1.15,2013-10-31 12:09:00,
2013-10-31 08:14:00,58.8,57.4,29.98,NE,45,0.0,1.0,95,0.00,,,0.01,Wunderground v.1.15,2013-10-31 12:14:00,
2013-10-31 08:19:00,58.9,57.5,29.98,ESE,109,0.0,1.0,95,0.00,,,0.01,Wunderground v.1.15,2013-10-31 12:19:00,
2013-10-31 08:25:00,59.1,57.7,29.98,SSW,196,0.0,1.0,95,0.00,,,0.01,Wunderground v.1.15,2013-10-31 12:25:00,
2013-10-31 08:30:00,59.1,57.7,29.98,SSW,196,0.0,0.0,95,0.00,,,0.01,Wunderground v.1.15,2013-10-31 12:30:00,
2013-10-31 08:35:00,59.1,57.4,29.98,NE,39,0.0,0.0,94,0.00,,,0.01,Wunderground v.1.15,2013-10-31 12:35:00,
2013-10-31 08:40:00,59.2,57.5,29.98,East,84,0.0,0.0,94,0.00,,,0.01,Wunderground v.1.15,2013-10-31 12:40:00,
2013-10-31 08:46:00,59.4,57.7,29.98,SE,138,1.0,3.0,94,0.00,,,0.01,Wunderground v.1.15,2013-10-31 12:46:00,
2013-10-31 08:52:00,59.6,57.6,29.97,SE,138,0.0,1.0,93,0.00,,,0.01,Wunderground v.1.15,2013-10-31 12:52:00,
2013-10-31 08:57:00,59.8,57.8,29.98,SSW,201,0.0,1.0,93,0.00,,,0.01,Wunderground v.1.15,2013-10-31 12:57:00,
2013-10-31 09:02:00,59.9,57.9,29.97,ESE,102,0.0,0.0,93,0.00,,,0.01,Wunderground v.1.15,2013-10-31 13:02:00,
2013-10-31 09:08:00,60.2,58.2,29.96,ESE,107,1.0,3.0,93,0.00,,,0.01,Wunderground v.1.15,2013-10-31 13:08:00,
2013-10-31 09:13:00,60.6,58.3,29.96,East,90,1.0,3.0,92,0.00,,,0.01,Wunderground v.1.15,2013-10-31 13:13:00,
2013-10-31 09:18:00,61.0,58.7,29.96,ESE,105,1.0,3.0,92,0.00,,,0.01,Wunderground v.1.15,2013-10-31 13:18:00,
2013-10-31 09:23:00,61.3,58.7,29.96,ESE,118,0.0,2.0,91,0.00,,,0.01,Wunderground v.1.15,2013-10-31 13:23:00,
2013-10-31 09:29:00,61.7,58.7,29.96,ESE,123,1.0,3.0,90,0.00,,,0.01,Wunderground v.1.15,2013-10-31 13:29:00,
2013-10-31 09:35:00,62.1,58.8,29.96,South,178,0.0,1.0,89,0.00,,,0.01,Wunderground v.1.15,2013-10-31 13:35:00,
2013-10-31 09:40:00,62.3,59.0,29.95,SE,127,0.0,0.0,89,0.00,,,0.01,Wunderground v.1.15,2013-10-31 13:40:00,
2013-10-31 09:45:00,62.3,58.4,29.95,SW,219,1.0,2.0,87,0.00,,,0.01,Wunderground v.1.15,2013-10-31 13:45:00,
2013-10-31 09:51:00,62.5,58.9,29.95,ENE,61,1.0,1.0,88,0.00,,,0.01,Wunderground v.1.15,2013-10-31 13:51:00,
2013-10-31 09:56:00,62.4,59.1,29.94,ENE,61,0.0,1.0,89,0.00,,,0.01,Wunderground v.1.15,2013-10-31 13:56:00,
2013-10-31 10:02:00,62.3,59.0,29.94,SSE,150,0.0,1.0,89,0.00,,,0.01,Wunderground v.1.15,2013-10-31 14:02:00,
2013-10-31 10:07:00,62.5,58.9,29.94,South,173,0.0,2.0,88,0.00,,,0.01,Wunderground v.1.15,2013-10-31 14:07:00,
2013-10-31 10:12:00,62.7,58.8,29.94,SSE,152,0.0,2.0,87,0.00,,,0.01,Wunderground v.1.15,2013-10-31 14:12:00,
2013-10-31 10:18:00,63.1,58.5,29.94,South,183,0.0,2.0,85,0.00,,,0.01,Wunderground v.1.15,2013-10-31 14:18:00,
2013-10-31 10:23:00,63.5,59.2,29.93,ESE,121,0.0,0.0,86,0.00,,,0.01,Wunderground v.1.15,2013-10-31 14:23:00,
2013-10-31 10:28:00,63.9,59.0,29.93,SSE,148,1.0,3.0,84,0.00,,,0.01,Wunderground v.1.15,2013-10-31 14:28:00,
2013-10-31 10:33:00,64.3,59.0,29.92,SE,134,1.0,1.0,83,0.00,,,0.01,Wunderground v.1.15,2013-10-31 14:33:00,
2013-10-31 10:39:00,64.7,59.1,29.92,SSE,154,1.0,2.0,82,0.00,,,0.01,Wunderground v.1.15,2013-10-31 14:39:00,
2013-10-31 10:44:00,65.0,59.4,29.92,East,87,1.0,1.0,82,0.00,,,0.01,Wunderground v.1.15,2013-10-31 14:44:00,
2013-10-31 10:49:00,65.3,59.0,29.92,SE,127,1.0,3.0,80,0.00,,,0.01,Wunderground v.1.15,2013-10-31 14:49:00,
2013-10-31 10:55:00,65.7,59.0,29.92,South,181,1.0,3.0,79,0.00,,,0.01,Wunderground v.1.15,2013-10-31 14:55:00,
2013-10-31 11:00:00,65.9,58.8,29.91,WSW,243,1.0,3.0,78,0.00,,,0.01,Wunderground v.1.15,2013-10-31 15:00:00,
2013-10-31 11:06:00,66.1,59.4,29.91,ENE,78,2.0,5.0,79,0.00,,,0.01,Wunderground v.1.15,2013-10-31 15:06:00,
2013-10-31 11:11:00,66.2,59.1,29.91,South,181,2.0,2.0,78,0.00,,,0.01,Wunderground v.1.15,2013-10-31 15:11:00,
2013-10-31 11:16:00,66.3,58.9,29.91,SE,128,1.0,2.0,77,0.00,,,0.01,Wunderground v.1.15,2013-10-31 15:16:00,
2013-10-31 11:21:00,66.4,59.3,29.91,ESE,123,1.0,1.0,78,0.00,,,0.01,Wunderground v.1.15,2013-10-31 15:21:00,
2013-10-31 11:26:00,66.6,59.5,29.91,SE,132,1.0,2.0,78,0.00,,,0.01,Wunderground v.1.15,2013-10-31 15:26:00,
2013-10-31 11:31:00,66.7,59.3,29.91,North,10,1.0,1.0,77,0.00,,,0.01,Wunderground v.1.15,2013-10-31 15:31:00,
2013-10-31 11:37:00,66.7,58.9,29.90,East,84,1.0,5.0,76,0.00,,,0.01,Wunderground v.1.15,2013-10-31 15:37:00,
2013-10-31 11:42:00,66.6,58.8,29.90,ESE,112,1.0,2.0,76,0.00,,,0.01,Wunderground v.1.15,2013-10-31 15:42:00,
2013-10-31 11:47:00,66.3,59.2,29.89,ESE,112,0.0,2.0,78,0.00,,,0.01,Wunderground v.1.15,2013-10-31 15:47:00,
2013-10-31 11:52:00,66.2,59.1,29.89,South,172,0.0,0.0,78,0.00,,,0.01,Wunderground v.1.15,2013-10-31 15:52:00,
2013-10-31 11:57:00,66.1,58.7,29.89,SE,144,1.0,2.0,77,0.00,,,0.01,Wunderground v.1.15,2013-10-31 15:57:00,
2013-10-31 12:03:00,65.9,58.8,29.89,South,184,1.0,4.0,78,0.00,,,0.01,Wunderground v.1.15,2013-10-31 16:03:00,
2013-10-31 12:08:00,65.8,59.5,29.90,East,86,1.0,4.0,80,0.00,,,0.01,Wunderground v.1.15,2013-10-31 16:08:00,
2013-10-31 12:14:00,65.5,59.5,29.89,East,98,0.0,1.0,81,0.00,,,0.01,Wunderground v.1.15,2013-10-31 16:14:00,
2013-10-31 12:19:00,65.3,58.6,29.89,SSW,192,1.0,1.0,79,0.00,,,0.01,Wunderground v.1.15,2013-10-31 16:19:00,
2013-10-31 12:24:00,65.3,57.9,29.88,ESE,113,1.0,3.0,77,0.00,,,0.01,Wunderground v.1.15,2013-10-31 16:24:00,
2013-10-31 12:30:00,65.5,58.5,29.88,SE,134,1.0,1.0,78,0.00,,,0.01,Wunderground v.1.15,2013-10-31 16:30:00,
2013-10-31 12:35:00,65.7,58.3,29.88,SE,132,1.0,2.0,77,0.00,,,0.01,Wunderground v.1.15,2013-10-31 16:35:00,
2013-10-31 12:40:00,65.9,59.2,29.87,South,173,1.0,1.0,79,0.00,,,0.01,Wunderground v.1.15,2013-10-31 16:40:00,
2013-10-31 12:45:00,66.1,58.7,29.87,ESE,120,1.0,2.0,77,0.00,,,0.01,Wunderground v.1.15,2013-10-31 16:45:00,
2013-10-31 12:50:00,66.2,58.4,29.87,SE,139,1.0,1.0,76,0.00,,,0.01,Wunderground v.1.15,2013-10-31 16:50:00,
2013-10-31 12:55:00,66.3,58.5,29.86,East,83,0.0,1.0,76,0.00,,,0.01,Wunderground v.1.15,2013-10-31 16:55:00,
2013-10-31 13:00:00,66.4,58.2,29.86,ESE,113,1.0,1.0,75,0.00,,,0.01,Wunderground v.1.15,2013-10-31 17:00:00,
2013-10-31 13:06:00,66.4,58.6,29.85,South,177,1.0,3.0,76,0.00,,,0.01,Wunderground v.1.15,2013-10-31 17:06:00,
2013-10-31 13:11:00,66.4,58.6,29.85,SE,146,1.0,1.0,76,0.00,,,0.01,Wunderground v.1.15,2013-10-31 17:11:00,
2013-10-31 13:17:00,66.4,58.6,29.85,East,94,1.0,2.0,76,0.00,,,0.01,Wunderground v.1.15,2013-10-31 17:17:00,
2013-10-31 13:22:00,66.4,58.6,29.85,East,92,0.0,2.0,76,0.00,,,0.01,Wunderground v.1.15,2013-10-31 17:22:00,
2013-10-31 13:27:00,66.5,59.1,29.84,ESE,110,0.0,2.0,77,0.00,,,0.01,Wunderground v.1.15,2013-10-31 17:27:00,
2013-10-31 13:32:00,66.6,58.4,29.84,SSE,165,1.0,3.0,75,0.00,,,0.01,Wunderground v.1.15,2013-10-31 17:32:00,
2013-10-31 13:37:00,66.7,58.9,29.84,SE,129,1.0,3.0,76,0.00,,,0.01,Wunderground v.1.15,2013-10-31 17:37:00,
2013-10-31 13:42:00,66.6,59.5,29.83,South,173,1.0,1.0,78,0.00,,,0.01,Wunderground v.1.15,2013-10-31 17:42:00,
2013-10-31 13:47:00,66.5,58.3,29.83,East,80,1.0,3.0,75,0.00,,,0.01,Wunderground v.1.15,2013-10-31 17:47:00,
2013-10-31 13:53:00,66.5,58.3,29.82,East,101,0.0,0.0,75,0.00,,,0.01,Wunderground v.1.15,2013-10-31 17:53:00,
2013-10-31 13:58:00,66.6,58.1,29.81,ESE,109,1.0,3.0,74,0.00,,,0.01,Wunderground v.1.15,2013-10-31 17:58:00,
2013-10-31 14:03:00,66.9,58.0,29.81,South,169,1.0,1.0,73,0.00,,,0.01,Wunderground v.1.15,2013-10-31 18:03:00,
2013-10-31 14:08:00,67.1,58.2,29.81,SSW,200,1.0,1.0,73,0.00,,,0.01,Wunderground v.1.15,2013-10-31 18:08:00,
2013-10-31 14:14:00,67.1,58.5,29.81,ESE,120,0.0,1.0,74,0.00,,,0.01,Wunderground v.1.15,2013-10-31 18:14:00,
2013-10-31 14:19:00,67.0,59.2,29.81,ESE,120,0.0,1.0,76,0.00,,,0.01,Wunderground v.1.15,2013-10-31 18:19:00,
2013-10-31 14:24:00,66.8,60.4,29.80,ESE,120,0.0,1.0,80,0.00,,,0.01,Wunderground v.1.15,2013-10-31 18:24:00,
2013-10-31 14:29:00,66.6,59.2,29.79,SE,145,0.0,1.0,77,0.00,,,0.01,Wunderground v.1.15,2013-10-31 18:29:00,
2013-10-31 14:35:00,66.4,59.0,29.79,SE,145,0.0,1.0,77,0.00,,,0.01,Wunderground v.1.15,2013-10-31 18:35:00,
2013-10-31 14:40:00,66.4,59.0,29.78,SE,136,0.0,0.0,77,0.00,,,0.01,Wunderground v.1.15,2013-10-31 18:40:00,
2013-10-31 14:45:00,66.5,58.7,29.77,SE,136,0.0,1.0,76,0.00,,,0.01,Wunderground v.1.15,2013-10-31 18:45:00,
2013-10-31 14:51:00,66.6,59.5,29.78,ESE,112,0.0,0.0,78,0.00,,,0.01,Wunderground v.1.15,2013-10-31 18:51:00,
2013-10-31 14:56:00,66.5,59.1,29.79,ESE,112,0.0,0.0,77,0.00,,,0.01,Wunderground v.1.15,2013-10-31 18:56:00,
2013-10-31 15:02:00,66.2,59.5,29.80,East,85,0.0,0.0,79,0.00,,,0.01,Wunderground v.1.15,2013-10-31 19:02:00,
2013-10-31 15:07:00,66.0,60.3,29.79,East,85,0.0,1.0,82,0.00,,,0.01,Wunderground v.1.15,2013-10-31 19:07:00,
2013-10-31 15:12:00,65.7,60.7,29.79,East,85,0.0,0.0,84,0.00,,,0.01,Wunderground v.1.15,2013-10-31 19:12:00,
2013-10-31 15:17:00,65.4,60.8,29.79,East,85,0.0,0.0,85,0.00,,,0.01,Wunderground v.1.15,2013-10-31 19:17:00,
2013-10-31 15:23:00,64.9,60.3,29.79,East,85,0.0,0.0,85,0.00,,,0.01,Wunderground v.1.15,2013-10-31 19:23:00,
2013-10-31 15:28:00,64.6,60.3,29.79,East,85,0.0,0.0,86,0.00,,,0.01,Wunderground v.1.15,2013-10-31 19:28:00,
2013-10-31 15:33:00,64.3,60.3,29.79,East,85,0.0,0.0,87,0.00,,,0.01,Wunderground v.1.15,2013-10-31 19:33:00,
2013-10-31 15:38:00,64.1,60.2,29.79,East,85,0.0,0.0,87,0.00,,,0.01,Wunderground v.1.15,2013-10-31 19:38:00,
2013-10-31 15:43:00,64.0,59.7,29.78,NE,36,0.0,0.0,86,0.00,,,0.01,Wunderground v.1.15,2013-10-31 19:43:00,
2013-10-31 15:48:00,63.8,59.5,29.78,NE,36,0.0,1.0,86,0.00,,,0.01,Wunderground v.1.15,2013-10-31 19:48:00,
2013-10-31 15:53:00,63.8,59.5,29.78,NE,36,0.0,0.0,86,0.00,,,0.01,Wunderground v.1.15,2013-10-31 19:53:00,
2013-10-31 15:59:00,63.8,59.2,29.78,ENE,76,0.0,1.0,85,0.00,,,0.01,Wunderground v.1.15,2013-10-31 19:59:00,
2013-10-31 16:00:00,63.8,59.2,29.78,ENE,76,0.0,0.0,85,0.00,,,0.01,Wunderground v.1.15,2013-10-31 20:00:00,
2013-10-31 16:06:00,63.8,59.2,29.79,ENE,76,0.0,0.0,85,0.00,,,0.01,Wunderground v.1.15,2013-10-31 20:06:00,
2013-10-31 16:11:00,63.6,59.3,29.79,ENE,76,0.0,0.0,86,0.00,,,0.02,Wunderground v.1.15,2013-10-31 20:11:00,
2013-10-31 16:17:00,63.4,59.5,29.78,ENE,76,0.0,0.0,87,0.00,,,0.02,Wunderground v.1.15,2013-10-31 20:17:00,
2013-10-31 16:22:00,63.1,59.5,29.78,ENE,76,0.0,0.0,88,0.00,,,0.02,Wunderground v.1.15,2013-10-31 20:22:00,
2013-10-31 16:27:00,62.8,59.5,29.78,ENE,76,0.0,0.0,89,0.04,,,0.03,Wunderground v.1.15,2013-10-31 20:27:00,
2013-10-31 16:32:00,62.5,59.5,29.78,ENE,76,0.0,0.0,90,0.04,,,0.03,Wunderground v.1.15,2013-10-31 20:32:00,
2013-10-31 16:37:00,62.2,59.2,29.78,ENE,76,0.0,0.0,90,0.04,,,0.03,Wunderground v.1.15,2013-10-31 20:37:00,
2013-10-31 16:43:00,62.0,59.3,29.78,ENE,76,0.0,0.0,91,0.00,,,0.03,Wunderground v.1.15,2013-10-31 20:43:00,
2013-10-31 16:48:00,61.8,59.5,29.78,ENE,76,0.0,0.0,92,0.00,,,0.03,Wunderground v.1.15,2013-10-31 20:48:00,
2013-10-31 16:53:00,61.6,59.3,29.78,ENE,76,0.0,0.0,92,0.00,,,0.03,Wunderground v.1.15,2013-10-31 20:53:00,
2013-10-31 16:59:00,61.5,59.2,29.77,ENE,76,0.0,0.0,92,0.00,,,0.03,Wunderground v.1.15,2013-10-31 20:59:00,
2013-10-31 17:05:00,61.3,59.3,29.78,ENE,76,0.0,0.0,93,0.00,,,0.04,Wunderground v.1.15,2013-10-31 21:05:00,
2013-10-31 17:10:00,61.2,59.2,29.78,ENE,76,0.0,0.0,93,0.00,,,0.04,Wunderground v.1.15,2013-10-31 21:10:00,
2013-10-31 17:15:00,61.1,59.1,29.78,ENE,76,0.0,0.0,93,0.06,,,0.05,Wunderground v.1.15,2013-10-31 21:15:00,
2013-10-31 17:20:00,61.0,59.0,29.77,ENE,76,0.0,0.0,93,0.06,,,0.05,Wunderground v.1.15,2013-10-31 21:20:00,
2013-10-31 17:26:00,60.9,58.9,29.77,ENE,76,0.0,0.0,93,0.05,,,0.05,Wunderground v.1.15,2013-10-31 21:26:00,
2013-10-31 17:31:00,60.8,59.1,29.76,ENE,76,0.0,0.0,94,0.04,,,0.05,Wunderground v.1.15,2013-10-31 21:31:00,
2013-10-31 17:36:00,60.7,59.0,29.76,ESE,122,0.0,0.0,94,0.00,,,0.05,Wunderground v.1.15,2013-10-31 21:36:00,
2013-10-31 17:42:00,60.6,58.9,29.76,ESE,122,0.0,0.0,94,0.00,,,0.05,Wunderground v.1.15,2013-10-31 21:42:00,
2013-10-31 17:47:00,60.5,58.5,29.76,ESE,105,1.0,1.0,93,0.00,,,0.05,Wunderground v.1.15,2013-10-31 21:47:00,
2013-10-31 17:52:00,60.4,58.4,29.76,ESE,117,1.0,1.0,93,0.00,,,0.05,Wunderground v.1.15,2013-10-31 21:52:00,
2013-10-31 17:57:00,60.2,58.2,29.76,ESE,116,0.0,1.0,93,0.00,,,0.06,Wunderground v.1.15,2013-10-31 21:57:00,
2013-10-31 18:03:00,60.0,58.0,29.76,SE,142,0.0,0.0,93,0.08,,,0.07,Wunderground v.1.15,2013-10-31 22:03:00,
2013-10-31 18:08:00,59.9,57.9,29.75,South,173,1.0,2.0,93,0.16,,,0.08,Wunderground v.1.15,2013-10-31 22:08:00,
2013-10-31 18:14:00,59.8,57.8,29.75,SE,145,1.0,2.0,93,0.12,,,0.09,Wunderground v.1.15,2013-10-31 22:14:00,
2013-10-31 18:19:00,59.8,57.8,29.74,ESE,117,1.0,5.0,93,0.13,,,0.10,Wunderground v.1.15,2013-10-31 22:19:00,
2013-10-31 18:24:00,59.7,57.7,29.74,SSE,158,1.0,2.0,93,0.07,,,0.11,Wunderground v.1.15,2013-10-31 22:24:00,
2013-10-31 18:30:00,59.6,57.6,29.74,South,186,1.0,3.0,93,0.07,,,0.11,Wunderground v.1.15,2013-10-31 22:30:00,
2013-10-31 18:35:00,59.6,57.6,29.74,NNE,33,1.0,3.0,93,0.07,,,0.12,Wunderground v.1.15,2013-10-31 22:35:00,
2013-10-31 18:40:00,59.5,57.2,29.72,ENE,61,2.0,2.0,92,0.08,,,0.13,Wunderground v.1.15,2013-10-31 22:40:00,
2013-10-31 18:46:00,59.4,57.1,29.72,SSE,167,2.0,4.0,92,0.08,,,0.13,Wunderground v.1.15,2013-10-31 22:46:00,
2013-10-31 18:52:00,59.3,57.0,29.72,SSE,148,2.0,2.0,92,0.07,,,0.14,Wunderground v.1.15,2013-10-31 22:52:00,
2013-10-31 18:57:00,59.3,57.0,29.72,ESE,119,3.0,5.0,92,0.06,,,0.14,Wunderground v.1.15,2013-10-31 22:57:00,
2013-10-31 19:03:00,59.1,57.1,29.71,SSW,202,3.0,7.0,93,0.04,,,0.14,Wunderground v.1.15,2013-10-31 23:03:00,
2013-10-31 19:08:00,59.1,56.8,29.71,SSW,198,3.0,7.0,92,0.04,,,0.15,Wunderground v.1.15,2013-10-31 23:08:00,
2013-10-31 19:13:00,59.0,57.0,29.71,ESE,122,2.0,2.0,93,0.04,,,0.15,Wunderground v.1.15,2013-10-31 23:13:00,
2013-10-31 19:18:00,58.9,56.6,29.70,SE,125,2.0,3.0,92,0.04,,,0.15,Wunderground v.1.15,2013-10-31 23:18:00,
2013-10-31 19:23:00,58.9,56.6,29.70,SSE,150,2.0,4.0,92,0.00,,,0.15,Wunderground v.1.15,2013-10-31 23:23:00,
2013-10-31 19:29:00,58.8,56.5,29.70,North,360,2.0,8.0,92,0.00,,,0.16,Wunderground v.1.15,2013-10-31 23:29:00,
2013-10-31 19:34:00,58.8,56.5,29.70,SE,129,2.0,4.0,92,0.00,,,0.16,Wunderground v.1.15,2013-10-31 23:34:00,
2013-10-31 19:39:00,58.7,56.4,29.69,SE,138,2.0,5.0,92,0.00,,,0.16,Wunderground v.1.15,2013-10-31 23:39:00,
2013-10-31 19:45:00,58.8,56.5,29.69,ENE,59,2.0,5.0,92,0.00,,,0.16,Wunderground v.1.15,2013-10-31 23:45:00,
2013-10-31 19:50:00,58.7,56.4,29.68,East,88,2.0,2.0,92,0.00,,,0.17,Wunderground v.1.15,2013-10-31 23:50:00,
2013-10-31 19:55:00,58.6,56.3,29.67,SSE,161,1.0,3.0,92,0.00,,,0.17,Wunderground v.1.15,2013-10-31 23:55:00,
2013-10-31 20:00:00,58.6,56.3,29.67,ENE,71,2.0,2.0,92,0.00,,,0.17,Wunderground v.1.15,2013-11-01 00:00:00,
2013-10-31 20:06:00,58.7,56.1,29.66,SSW,198,3.0,4.0,91,0.00,,,0.17,Wunderground v.1.15,2013-11-01 00:06:00,
2013-10-31 20:12:00,58.9,56.3,29.65,South,186,3.0,3.0,91,0.00,,,0.17,Wunderground v.1.15,2013-11-01 00:12:00,
2013-10-31 20:17:00,59.0,56.1,29.65,SE,139,2.0,4.0,90,0.00,,,0.17,Wunderground v.1.15,2013-11-01 00:17:00,
2013-10-31 20:22:00,59.1,56.2,29.65,NNE,24,3.0,3.0,90,0.00,,,0.17,Wunderground v.1.15,2013-11-01 00:22:00,
2013-10-31 20:28:00,59.2,56.0,29.64,SE,134,2.0,3.0,89,0.00,,,0.17,Wunderground v.1.15,2013-11-01 00:28:00,
2013-10-31 20:33:00,59.2,56.3,29.64,ESE,106,1.0,3.0,90,0.00,,,0.17,Wunderground v.1.15,2013-11-01 00:33:00,
2013-10-31 20:38:00,59.3,56.1,29.64,South,183,1.0,3.0,89,0.00,,,0.17,Wunderground v.1.15,2013-11-01 00:38:00,
2013-10-31 20:43:00,59.1,56.2,29.63,SW,232,1.0,3.0,90,0.00,,,0.17,Wunderground v.1.15,2013-11-01 00:43:00,
2013-10-31 20:48:00,59.0,56.1,29.63,SE,143,1.0,4.0,90,0.00,,,0.17,Wunderground v.1.15,2013-11-01 00:48:00,
2013-10-31 20:54:00,59.1,55.9,29.62,SE,126,1.0,2.0,89,0.00,,,0.17,Wunderground v.1.15,2013-11-01 00:54:00,
2013-10-31 20:59:00,59.3,55.7,29.62,East,87,2.0,3.0,88,0.00,,,0.17,Wunderground v.1.15,2013-11-01 00:59:00,
2013-10-31 21:04:00,59.4,56.2,29.62,SE,142,1.0,5.0,89,0.00,,,0.17,Wunderground v.1.15,2013-11-01 01:04:00,
2013-10-31 21:10:00,59.4,55.8,29.60,ESE,120,2.0,3.0,88,0.00,,,0.17,Wunderground v.1.15,2013-11-01 01:10:00,
2013-10-31 21:15:00,59.9,56.0,29.60,South,190,2.0,3.0,87,0.00,,,0.17,Wunderground v.1.15,2013-11-01 01:15:00,
2013-10-31 21:20:00,60.0,56.1,29.60,SW,227,3.0,3.0,87,0.00,,,0.17,Wunderground v.1.15,2013-11-01 01:20:00,
2013-10-31 21:25:00,60.3,56.1,29.60,SE,145,2.0,3.0,86,0.00,,,0.17,Wunderground v.1.15,2013-11-01 01:25:00,
2013-10-31 21:30:00,60.2,56.3,29.60,SE,125,1.0,2.0,87,0.00,,,0.17,Wunderground v.1.15,2013-11-01 01:30:00,
2013-10-31 21:36:00,60.2,56.3,29.59,SE,136,2.0,3.0,87,0.00,,,0.17,Wunderground v.1.15,2013-11-01 01:36:00,
2013-10-31 21:41:00,60.4,56.2,29.59,SW,214,2.0,3.0,86,0.00,,,0.17,Wunderground v.1.15,2013-11-01 01:41:00,
2013-10-31 21:46:00,60.8,56.6,29.58,ESE,116,3.0,4.0,86,0.00,,,0.17,Wunderground v.1.15,2013-11-01 01:46:00,
2013-10-31 21:51:00,60.8,56.3,29.58,SW,234,2.0,5.0,85,0.00,,,0.17,Wunderground v.1.15,2013-11-01 01:51:00,
2013-10-31 21:57:00,61.0,56.5,29.57,ESE,111,3.0,5.0,85,0.00,,,0.17,Wunderground v.1.15,2013-11-01 01:57:00,
2013-10-31 22:02:00,61.4,56.5,29.57,ESE,105,2.0,5.0,84,0.00,,,0.17,Wunderground v.1.15,2013-11-01 02:02:00,
2013-10-31 22:07:00,61.7,56.8,29.57,SW,222,3.0,6.0,84,0.00,,,0.17,Wunderground v.1.15,2013-11-01 02:07:00,
2013-10-31 22:12:00,61.9,56.7,29.57,ENE,71,3.0,4.0,83,0.00,,,0.18,Wunderground v.1.15,2013-11-01 02:12:00,
2013-10-31 22:18:00,61.8,56.6,29.56,SSE,166,2.0,6.0,83,0.00,,,0.18,Wunderground v.1.15,2013-11-01 02:18:00,
2013-10-31 22:23:00,62.0,56.1,29.55,SSE,157,2.0,2.0,81,0.00,,,0.18,Wunderground v.1.15,2013-11-01 02:23:00,
2013-10-31 22:28:00,62.2,56.6,29.55,North,360,2.0,4.0,82,0.00,,,0.18,Wunderground v.1.15,2013-11-01 02:28:00,
2013-10-31 22:34:00,62.5,56.6,29.55,NE,35,3.0,5.0,81,0.00,,,0.18,Wunderground v.1.15,2013-11-01 02:34:00,
2013-10-31 22:39:00,62.5,56.2,29.53,SE,130,2.0,5.0,80,0.00,,,0.18,Wunderground v.1.15,2013-11-01 02:39:00,
2013-10-31 22:44:00,62.6,56.7,29.53,SSW,194,2.0,2.0,81,0.00,,,0.18,Wunderground v.1.15,2013-11-01 02:44:00,
2013-10-31 22:49:00,62.6,56.0,29.53,NE,56,2.0,3.0,79,0.00,,,0.18,Wunderground v.1.15,2013-11-01 02:49:00,
2013-10-31 22:55:00,63.1,56.1,29.53,SSW,207,2.0,7.0,78,0.00,,,0.18,Wunderground v.1.15,2013-11-01 02:55:00,
2013-10-31 23:00:00,63.5,56.2,29.52,North,5,3.0,3.0,77,0.00,,,0.18,Wunderground v.1.15,2013-11-01 03:00:00,
2013-10-31 23:06:00,63.7,56.4,29.52,SE,125,3.0,5.0,77,0.00,,,0.18,Wunderground v.1.15,2013-11-01 03:06:00,
2013-10-31 23:11:00,63.8,56.1,29.51,ESE,111,3.0,8.0,76,0.00,,,0.18,Wunderground v.1.15,2013-11-01 03:11:00,
2013-10-31 23:17:00,63.8,56.1,29.50,South,180,2.0,8.0,76,0.00,,,0.18,Wunderground v.1.15,2013-11-01 03:17:00,
2013-10-31 23:23:00,63.6,56.3,29.50,ESE,115,2.0,3.0,77,0.00,,,0.18,Wunderground v.1.15,2013-11-01 03:23:00,
2013-10-31 23:28:00,63.4,55.7,29.49,SSE,151,2.0,3.0,76,0.00,,,0.18,Wunderground v.1.15,2013-11-01 03:28:00,
2013-10-31 23:33:00,63.5,56.5,29.50,WSW,246,2.0,2.0,78,0.00,,,0.18,Wunderground v.1.15,2013-11-01 03:33:00,
2013-10-31 23:38:00,63.5,56.2,29.48,ESE,105,2.0,4.0,77,0.00,,,0.18,Wunderground v.1.15,2013-11-01 03:38:00,
2013-10-31 23:43:00,63.6,56.3,29.48,South,175,2.0,4.0,77,0.00,,,0.18,Wunderground v.1.15,2013-11-01 03:43:00,
2013-10-31 23:48:00,63.6,56.3,29.48,South,190,2.0,4.0,77,0.00,,,0.18,Wunderground v.1.15,2013-11-01 03:48:00,
2013-10-31 23:54:00,63.7,57.1,29.48,SSW,211,2.0,3.0,79,0.00,,,0.18,Wunderground v.1.15,2013-11-01 03:54:00,
2013-10-31 23:59:00,63.5,56.2,29.47,East,96,2.0,3.0,77,0.00,,,0.18,Wunderground v.1.15,2013-11-01 03:59:00,